Location: Unspecified
(0.0000°N, 0.0000°E)
Time: 13:49:11
(UTC+00:00)

FALCON 9 R/B - Pass Details

Date: 31 October 2020
Orbit: 485 x 62261 km, 25.4° (Epoch: 27 November)

Event Time Altitude Azimuth Distance (km) Brightness Sun altitude
Exits shadow 02:22:40 52° 327° (NNW) 8,742 ? -48.2°
Maximum altitude 05:57:27 62° 353° (N) 45,500 ? 3.4°
Drops below altitude 10° 12:17:28 10° 290° (WNW) 67,187 ? 73.4°
Sets 13:10:48 0° 289° (WNW) 67,657 ? 64.1°
